Bowie, TX

9:54 PM CST on December 04, 2016 (GMT -0600)
Bowie

Weather History for K0F2 - January, 2014

Change the Weather History Date:

Wednesday, January 29, 2014

  Actual Average (KSPS) Record (KSPS)
Temperature  
Mean Temperature 27 °F 43 °F  
Max Temperature 44 °F 55 °F 80 °F (1967)
Min Temperature 10 °F 31 °F 6 °F (1966)
Degree Days  
Heating Degree Days 38 22  
Month to date heating degree days 670  
Since 1 July heating degree days 1867  
Moisture  
Dew Point 11 °F    
Average Humidity 52    
Maximum Humidity 92    
Minimum Humidity 23    
Precipitation  
Precipitation 0.00 in 0.04 in 2.11 in (1999)
Month to date precipitation 1.06  
Year to date precipitation 1.06  
Snow  
Snow 0.00 in 0.00 in - ()
Month to date snowfall 1.3  
Since 1 July snowfall 2.6  
Snow Depth -    
Sea Level Pressure  
Sea Level Pressure 30.27 in    
Wind  
Wind Speed 4 mph (SE)    
Max Wind Speed 16 mph    
Max Gust Speed 22 mph    
Visibility 10 miles    
Events      
T = Trace of Precipitation, MM = Missing Value Source: NWS Daily Summary

Daily Weather History Graph

Daily Weather History Graph

Search for Another Location

Airport or City:

Trip Planner

Search our weather history database for the weather conditions in past years. The results will help you decide how hot, cold, wet, or windy it might be!

Date:

Astronomy

Jan. 29, 2014 Rise Set
Actual Time 7:29 AM CST 5:59 PM CST
Civil Twilight 7:03 AM CST 6:25 PM CST
Nautical Twilight 6:33 AM CST 6:55 PM CST
Astronomical Twilight 6:03 AM CST 7:25 PM CST
Moon 6:06 AM CST (1/29) 5:00 PM CST (1/29)
Length of Visible Light 11h 22m
Length of Day
10h 30m
Waning Crescent, 2% of the Moon is Illuminated
Jan 29
Waning Crescent
Jan 30
New
Feb 6
First Quarter
Feb 14
Full
Feb 22
Last Quarter

Hourly Weather History & Observations

Time (CST) Temp. Windchill Dew Point Humidity Pressure Visibility Wind Dir Wind Speed Gust Speed Precip Events Conditions
12:15 AM 15.8 °F - 8.6 °F 73% 30.41 in 10.0 mi Calm Calm - N/A   Clear
12:35 AM 14.0 °F - 8.6 °F 79% 30.40 in 10.0 mi Calm Calm - N/A   Clear
12:55 AM 12.2 °F - 6.8 °F 79% 30.40 in 10.0 mi Calm Calm - N/A   Clear
1:15 AM 14.0 °F - 6.8 °F 73% 30.40 in 10.0 mi Calm Calm - N/A   Clear
1:35 AM 14.0 °F - 8.6 °F 79% 30.40 in 10.0 mi Calm Calm - N/A   Clear
1:55 AM 14.0 °F - 8.6 °F 79% 30.39 in 10.0 mi Calm Calm - N/A   Clear
2:15 AM 14.0 °F - 8.6 °F 79% 30.39 in 10.0 mi Calm Calm - N/A   Clear
2:55 AM 12.2 °F - 8.6 °F 85% 30.38 in 10.0 mi Calm Calm - N/A   Clear
3:15 AM 14.0 °F - 10.4 °F 86% 30.37 in 10.0 mi Calm Calm - N/A   Clear
3:35 AM 14.0 °F - 8.6 °F 79% 30.37 in 10.0 mi Calm Calm - N/A   Clear
3:55 AM 14.0 °F - 10.4 °F 86% 30.37 in 10.0 mi Calm Calm - N/A   Clear
4:15 AM 12.2 °F - 8.6 °F 85% 30.37 in 10.0 mi Calm Calm - N/A   Clear
4:35 AM 12.2 °F - 8.6 °F 85% 30.37 in 10.0 mi Calm Calm - N/A   Clear
4:55 AM 10.4 °F 4.0 °F 8.6 °F 92% 30.37 in 10.0 mi SE 3.5 mph - N/A   Clear
5:15 AM 12.2 °F - 8.6 °F 85% 30.36 in 10.0 mi Calm Calm - N/A   Clear
5:35 AM 12.2 °F - 8.6 °F 85% 30.36 in 10.0 mi Calm Calm - N/A   Clear
5:55 AM 12.2 °F - 6.8 °F 79% 30.35 in 10.0 mi Calm Calm - N/A   Clear
6:15 AM 12.2 °F 6.1 °F 6.8 °F 79% 30.36 in 10.0 mi South 3.5 mph - N/A   Clear
6:35 AM 14.0 °F 8.2 °F 8.6 °F 79% 30.37 in 10.0 mi South 3.5 mph - N/A   Clear
6:55 AM 12.2 °F - 8.6 °F 85% 30.37 in 10.0 mi Calm Calm - N/A   Clear
7:35 AM 12.2 °F - 8.6 °F 85% 30.38 in 10.0 mi Calm Calm - N/A   Clear
7:55 AM 14.0 °F - 8.6 °F 79% 30.38 in 10.0 mi Calm Calm - N/A   Clear
8:15 AM 17.6 °F - 12.2 °F 79% 30.38 in 10.0 mi Calm Calm - N/A   Clear
8:35 AM 21.2 °F - 14.0 °F 74% 30.37 in 10.0 mi Calm Calm - N/A   Clear
8:55 AM 24.8 °F - 15.8 °F 69% 30.37 in 10.0 mi Calm Calm - N/A   Clear
9:15 AM 28.4 °F 24.6 °F 17.6 °F 64% 30.37 in 10.0 mi SSE 3.5 mph - N/A   Clear
9:35 AM 32.0 °F 24.8 °F 17.6 °F 55% 30.38 in 10.0 mi SSE 8.1 mph - N/A   Clear
9:55 AM 30.2 °F 21.3 °F 14.0 °F 51% 30.39 in 10.0 mi SE 10.4 mph - N/A   Clear
10:15 AM 32.0 °F 23.6 °F 14.0 °F 48% 30.40 in 10.0 mi SSE 10.4 mph - N/A   Clear
10:35 AM 33.8 °F 27.7 °F 14.0 °F 44% 30.39 in 10.0 mi South 6.9 mph - N/A   Clear
10:55 AM 33.8 °F 25.8 °F 12.2 °F 41% 30.39 in 10.0 mi South 10.4 mph - N/A   Clear
11:15 AM 35.6 °F 26.6 °F 12.2 °F 38% 30.37 in 10.0 mi South 13.8 mph 17.3 mph N/A   Clear
11:35 AM 37.4 °F 31.4 °F 10.4 °F 33% 30.37 in 10.0 mi SSE 8.1 mph - N/A   Clear
11:55 AM 41.0 °F 35.8 °F 12.2 °F 31% 30.34 in 10.0 mi SE 8.1 mph - N/A   Clear
12:15 PM 41.0 °F 35.8 °F 12.2 °F 31% 30.33 in 10.0 mi SE 8.1 mph - N/A   Clear
12:35 PM 41.0 °F 35.2 °F 10.4 °F 29% 30.31 in 10.0 mi SSE 9.2 mph - N/A   Clear
12:55 PM 42.8 °F 36.6 °F 10.4 °F 27% 30.29 in 10.0 mi SSE 11.5 mph - N/A   Clear
1:15 PM 42.8 °F 37.0 °F 8.6 °F 25% 30.27 in 10.0 mi SE 10.4 mph 17.3 mph N/A   Clear
1:35 PM 42.8 °F 36.6 °F 8.6 °F 25% 30.26 in 10.0 mi SE 11.5 mph 17.3 mph N/A   Clear
1:55 PM 44.6 °F 39.2 °F 8.6 °F 23% 30.26 in 10.0 mi SSE 10.4 mph 18.4 mph N/A   Clear
2:15 PM 44.6 °F 38.8 °F 8.6 °F 23% 30.25 in 10.0 mi South 11.5 mph 19.6 mph N/A   Clear
2:35 PM 44.6 °F 38.8 °F 8.6 °F 23% 30.23 in 10.0 mi SE 11.5 mph 18.4 mph N/A   Clear
2:55 PM 44.6 °F 38.8 °F 8.6 °F 23% 30.23 in 10.0 mi SSE 11.5 mph 16.1 mph N/A   Clear
3:15 PM 44.6 °F 37.8 °F 10.4 °F 25% 30.22 in 10.0 mi SSE 15.0 mph 18.4 mph N/A   Clear
3:35 PM 44.6 °F 38.1 °F 8.6 °F 23% 30.21 in 10.0 mi SE 13.8 mph 19.6 mph N/A   Clear
3:55 PM 44.6 °F 37.4 °F 10.4 °F 25% 30.20 in 10.0 mi SE 16.1 mph 19.6 mph N/A   Clear
4:15 PM 44.6 °F 37.8 °F 10.4 °F 25% 30.20 in 10.0 mi SE 15.0 mph 20.7 mph N/A   Clear
4:35 PM 44.6 °F 38.4 °F 10.4 °F 25% 30.19 in 10.0 mi SE 12.7 mph 19.6 mph N/A   Clear
4:55 PM 42.8 °F 36.2 °F 10.4 °F 27% 30.18 in 10.0 mi SE 12.7 mph 18.4 mph N/A   Clear
5:35 PM 41.0 °F 33.9 °F 10.4 °F 29% 30.17 in 10.0 mi SE 12.7 mph 16.1 mph N/A   Clear
5:55 PM 39.2 °F 33.6 °F 12.2 °F 33% 30.15 in 10.0 mi SE 8.1 mph - N/A   Clear
6:15 PM 37.4 °F 30.8 °F 12.2 °F 36% 30.14 in 10.0 mi SE 9.2 mph - N/A   Clear
6:35 PM 37.4 °F 32.1 °F 12.2 °F 36% 30.14 in 10.0 mi SE 6.9 mph - N/A   Clear
6:55 PM 37.4 °F 32.1 °F 10.4 °F 33% 30.15 in 10.0 mi SE 6.9 mph - N/A   Clear
7:15 PM 35.6 °F 30.7 °F 10.4 °F 35% 30.15 in 10.0 mi SE 5.8 mph - N/A   Clear
7:35 PM 35.6 °F 28.6 °F 12.2 °F 38% 30.15 in 10.0 mi SE 9.2 mph - N/A   Clear
7:55 PM 35.6 °F 28.0 °F 12.2 °F 38% 30.15 in 10.0 mi SE 10.4 mph - N/A   Clear
8:15 PM 35.6 °F 26.6 °F 12.2 °F 38% 30.14 in 10.0 mi SE 13.8 mph 18.4 mph N/A   Clear
8:35 PM 35.6 °F 27.5 °F 10.4 °F 35% 30.13 in 10.0 mi SE 11.5 mph 17.3 mph N/A   Clear
8:55 PM 35.6 °F 26.6 °F 10.4 °F 35% 30.11 in 10.0 mi SE 13.8 mph 21.9 mph N/A   Clear
9:15 PM 33.8 °F 25.3 °F 10.4 °F 38% 30.11 in 10.0 mi SE 11.5 mph 21.9 mph N/A   Clear
9:35 PM 33.8 °F 24.8 °F 10.4 °F 38% 30.11 in 10.0 mi SSE 12.7 mph - N/A   Clear
9:55 PM 33.8 °F 25.3 °F 10.4 °F 38% 30.11 in 10.0 mi SE 11.5 mph 18.4 mph N/A   Clear
10:15 PM 33.8 °F 25.3 °F 12.2 °F 41% 30.11 in 10.0 mi SE 11.5 mph 20.7 mph N/A   Clear
10:35 PM 33.8 °F 25.3 °F 12.2 °F 41% 30.10 in 10.0 mi SE 11.5 mph 18.4 mph N/A   Clear
10:55 PM 32.0 °F 23.0 °F 12.2 °F 44% 30.10 in 10.0 mi SE 11.5 mph - N/A   Clear
11:15 PM 32.0 °F 23.0 °F 12.2 °F 44% 30.10 in 10.0 mi SE 11.5 mph 19.6 mph N/A   Clear
11:35 PM 32.0 °F 22.1 °F 12.2 °F 44% 30.09 in 10.0 mi SE 13.8 mph 20.7 mph N/A   Clear
11:55 PM 32.0 °F 23.6 °F 12.2 °F 44% 30.09 in 10.0 mi SE 10.4 mph 17.3 mph N/A   Clear